Regional Weather Roundup
Issued by NWS

Home | Current Version | Previous Version | Text Only | Print | Product List | Glossary Off
Versions: 1 2 3 4 5 6 7 8 9 10 11 12 13 14 15 16 17 18 19 20 21 22 23 24 25 26 27 28 29 30 31 32 33 34 35 36 37 38 39 40 41 42 43 44 45 46 47 48 49 50

000
ASUS43 KLOT 270208
RWRIL

ILLINOIS REGIONAL WEATHER ROUNDUP
NATIONAL WEATHER SERVICE CHICAGO/ROMEOVILLE IL
900 PM CDT TUE MAY 26 2015

NOTE: "FAIR" INDICATES FEW OR NO CLOUDS BELOW 12,000 FEET WITH NO
SIGNIFICANT WEATHER AND/OR OBSTRUCTIONS TO VISIBILITY.

* THESE STATIONS ARE NOT UNDER NWS QUALITY CONTROL. THEY ALSO MAY NOT
  REPORT WEATHER SUCH AS PRECIPITATION OR FOG.

ILZ001-002-007-009-015-016-024-270300-
NORTHWEST ILLINOIS

CITY           SKY/WX    TMP DP  RH WIND       PRES   REMARKS
MOLINE         CLOUDY    68  62  81 SW8       29.80R
STERLING*      PTCLDY    70  61  73 SW5       29.81S
SAVANNA*       MOCLDY    69  60  71 SW6       29.79R
$$

ILZ003-004-008-010-011-017-018-270300-
NORTH CENTRAL ILLINOIS

CITY           SKY/WX    TMP DP  RH WIND       PRES   REMARKS
ROCKFORD       MOCLDY    68  58  70 SW7       29.82R
FREEPORT*      MOCLDY    65  59  79 SW6       29.81R
ROCHELLE*      LGT RAIN  66  62  86 SW8       29.83R
DE KALB*       MOCLDY    65  59  82 SW7       29.84R
PERU*          CLOUDY    70  62  75 S8        29.84S
$$

ILZ005-006-012>014-019>023-270300-
NORTHEAST ILLINOIS

CITY           SKY/WX    TMP DP  RH WIND       PRES   REMARKS
CHICAGO-OHARE  PTCLDY    68  61  78 SW7       29.82R
CHICAGO-MIDWAY PTCLDY    70  62  76 SW10      29.83R
AURORA         MOCLDY    69  59  70 SW9       29.84R
LANSING*       PTCLDY    68  59  73 SW9       29.86R
JOLIET*        CLOUDY    71  62  72 SW5       29.85R
WAUKEGAN       CLEAR     68  58  70 SW12G22   29.79R
DUPAGE AIRPORT CLEAR     67  60  78 SW10      29.83R
KANKAKEE*      PTCLDY    68  63  84 S12       29.89R
WHEELING       PTCLDY    69  61  75 SW10      29.83R
MORRIS*        MOCLDY    66  61  83 S7        29.84R
ROMEOVILLE*    CLOUDY    70  59  68 SW10      29.85R
NORTHERLY ISL    N/A     70  59  68 SW3         N/A
$$

LMZ740>746-270300-
SOUTHERN LAKE MICHIGAN

STATION/POSITION SKY/WX   TEMP    WIND        PRES    VSBY  WAVE
                          AIR SEA DIR/SP/G                  HT/PER
                          (F)     (DEG/KT/KT) (MB)    (MI)  (FT/S)
SOUTHERN BUOY              47 38  200/ 12/ 14 1009.0R         2/ 4
HARRISON CRIB              69     210/ 18/ 23   N/A
BURNHAM HARBOR             70     190/  6/ 10   N/A
CALUMET HARBOR             71     220/  6/ 12   N/A
BURNS HARBOR               71     220/ 15/ 22 1010.8R
MICHIGAN CITY              71     200/ 22/ 27   N/A
MICHIGAN CITY 6N           62 52  220/ 10/ 12   N/A           3/ 4
ST. JOSEPH                 61 55  250/ 10/ 12   N/A           2/ 3
$$

ILZ025>027-034>036-040-047-049-050-058-095>099-270300-
WEST-CENTRAL ILLINOIS

CITY           SKY/WX    TMP DP  RH WIND       PRES   REMARKS
QUINCY         PTCLDY    71  61  70 SW13      29.86R
GALESBURG*     CLOUDY    70  62  75 S14       29.83S
MACOMB*        MOCLDY    70  63  77 S9        29.86R
JACKSONVILLE*  PTCLDY    74  62  64 S10       29.89R
PITTSFIELD*    PTCLDY    73  61  66 S9        29.90R
$$

ILZ028>032-037-038-041>044-048-051>054-059>061-270300-
CENTRAL ILLINOIS

CITY           SKY/WX    TMP DP  RH WIND       PRES   REMARKS
PONTIAC        MOCLDY    71  64  77 S9        29.88R
BLOOMINGTON    PTCLDY    69  64  84 S12       29.91R
DECATUR        CLEAR     71  62  73 S10       29.92R
PEORIA         MOCLDY    73  60  63 S10       29.85R
LACON*         MOCLDY    68  61  77 S6        29.83S
LINCOLN*       CLEAR     71  62  73 S6        29.87R
SPRINGFIELD    PTCLDY    73  60  63 S10       29.90R
TAYLORVILLE    CLEAR     70  63  78 S9        29.93R
$$

ILZ033-039-045-046-055>057-062-063-270300-
EAST-CENTRAL ILLINOIS

CITY           SKY/WX    TMP DP  RH WIND       PRES   REMARKS
CHAMPAIGN      CLEAR     68  61  78 S9        29.93R
DANVILLE*      PTCLDY    69  61  76 SW9       29.91R
RANTOUL*       CLEAR     71  64  78 S9        29.92R
MATTOON        CLEAR     70  60  70 S6        29.94R
PARIS*         CLEAR     71  59  66 SW9       29.97R
$$

ILZ079-100>102-270300-
SOUTHWEST ILLINOIS

CITY           SKY/WX    TMP DP  RH WIND       PRES   REMARKS
ALTON          PTCLDY    72  64  78 S7        29.95R
BELLEVILLE     CLEAR     70  64  80 S7        29.95R
CAHOKIA*       CLEAR     73  61  65 S6        29.95R
SPARTA*        CLEAR     71  61  70 S7        29.99R
$$

ILZ064>066-069>071-074>076-080>082-084>086-088>090-092>094-270300-
SOUTH-CENTRAL ILLINOIS

CITY           SKY/WX    TMP DP  RH WIND       PRES   REMARKS
CARBONDALE     CLEAR     69  62  78 S7        30.00R
CAIRO*         PTCLDY    70  64  80 S7        30.03R
EFFINGHAM*     CLEAR     71  56  58 S5        29.98R
MARION         CLEAR     68  64  88 S5        30.02R
MT. VERNON     CLEAR     70  59  68 S7        30.00R
CENTRALIA*     CLEAR     68  59  73 S7        29.99R
SALEM*         CLEAR     73  60  64 S8        29.98R
METROPOLIS*    CLEAR     70  63  78 S5        30.03R
$$

ILZ067-068-072-073-078-083-087-091-270300-
SOUTHEAST ILLINOIS

CITY           SKY/WX    TMP DP  RH WIND       PRES   REMARKS
LAWRENCEVILLE  PTCLDY    71  60  68 SW12      29.99R
FLORA*         PTCLDY    70  61  73 S8        29.99R
FAIRFIELD*     CLEAR     71  63  75 S8        29.99R
HARRISBURG*    CLEAR     71  63  76 SW6       30.02R
ROBINSON*      PTCLDY    72  59  64 SW7       29.98R
CARMI*         CLEAR     72  57  60 S7        30.00R
$$

ABBREVIATIONS USED IN REMARKS
   TC - TEMPERATURE IN CELSIUS
  WCI - WIND CHILL INDEX
   HX - HEAT INDEX
  VSB - VISIBILITY
$$




USA.gov is the U.S. government's official web portal to all federal, state and local government web resources and services.